GFSMA_850_rhum_225.txt.gz
RH
64 59 83 85 86 81 97 95 64 66 62 61 68 63 64 60 59 48 60 52 58 53 47 37 16 8 9 9 7 5 4 4 3 3 3 3 4 4 5 8 14 18 18
80 75 76 81 86 82 87 87 85 76 78 71 65 72 76 80 64 63 64 59 60 56 51 43 22 11 10 10 8 6 5 4 4 4 3 3 3 4 4 4 5 5 6
73 79 85 86 82 82 79 85 93 96 88 85 70 66 70 81 80 60 64 62 57 59 52 46 31 15 12 12 9 7 5 5 4 4 3 3 3 4 4 4 5 5 4
91 91 91 86 87 84 83 91 85 99 93 86 82 73 66 78 79 79 60 58 59 55 57 48 42 29 15 16 13 9 7 6 4 4 4 3 3 4 4 4 4 4 5
99 98 92 87 85 85 88 88 82 88 88 91 82 81 76 69 70 78 74 61 62 57 56 53 48 38 20 15 19 14 12 8 7 5 4 4 3 3 3 3 4 4 4
84 90 91 91 89 93 98 95 93 91 93 83 80 81 79 76 74 70 66 64 62 64 65 64 66 56 34 19 14 18 19 16 22 15 6 4 4 4 3 4 4 4 5
69 74 79 88 86 89 90 94 96 94 93 91 86 85 83 79 76 71 65 65 67 68 65 62 69 74 54 40 34 25 67 54 55 50 41 8 7 5 4 4 4 6 6
28 40 67 78 81 79 72 83 93 96 99 100 100 93 86 82 74 69 66 64 68 66 69 66 70 71 72 64 50 53 94 97 98 86 58 51 14 24 8 6 4 4 5
28 26 35 66 75 78 75 86 88 92 100 100 100 99 92 89 78 74 65 65 68 70 70 70 72 76 74 73 57 42 79 98 99 100 100 92 73 43 33 43 21 5 5
51 36 24 32 47 56 71 76 64 89 89 94 97 100 99 96 84 80 74 68 70 69 71 72 74 84 84 78 64 63 47 98 97 98 99 100 97 66 37 66 52 60 20
54 47 57 68 56 71 83 78 98 91 98 90 100 99 99 100 100 99 86 79 74 73 71 75 75 80 86 82 81 74 64 60 69 70 98 99 99 99 84 72 92 94 69
52 70 68 67 78 78 62 68 89 92 92 96 97 99 95 100 100 100 100 96 84 75 75 78 87 85 90 86 85 83 79 77 66 76 69 96 99 98 99 87 96 97 97
68 73 72 77 70 66 56 58 59 63 67 66 71 78 98 100 98 98 100 100 98 89 89 82 96 91 96 89 89 89 77 78 78 71 55 97 97 98 98 97 95 98 97
73 74 78 84 85 78 66 67 58 52 57 60 57 58 67 74 73 94 98 100 100 99 96 89 90 99 96 92 90 88 87 83 81 86 97 99 96 95 97 96 98 98 97
71 78 81 80 81 81 93 89 71 62 67 58 63 73 69 65 59 62 86 95 100 100 100 96 93 89 95 99 97 96 92 90 88 91 90 94 89 86 98 98 95 96 100
48 52 50 47 54 64 76 89 96 75 74 56 69 74 72 72 70 72 69 81 95 100 100 99 95 89 82 100 100 100 98 95 97 98 94 96 82 99 97 100 96 97 74
43 44 40 36 32 37 41 73 98 88 67 66 59 96 82 83 70 80 80 78 90 100 100 100 100 95 98 100 100 100 100 100 100 100 96 99 93 95 95 96 98 80 34
33 33 34 34 35 44 37 76 63 73 60 60 60 58 61 72 90 92 88 83 85 94 100 100 100 100 99 98 98 100 100 100 100 100 100 100 99 88 99 100 85 54 24
38 36 36 38 35 38 41 47 66 87 57 67 61 63 64 84 92 99 100 90 93 93 98 100 100 100 100 100 100 100 100 100 100 100 100 100 99 99 100 99 80 32 22
34 33 32 35 40 35 40 57 66 68 60 65 62 60 63 90 98 98 100 98 98 98 99 100 100 100 100 100 100 99 100 100 100 100 100 100 100 99 97 100 52 26 23
34 35 35 33 34 41 49 65 63 58 60 60 54 58 66 96 100 100 100 98 100 100 100 100 100 100 100 100 98 99 100 100 100 100 100 99 99 99 100 99 39 36 37
52 49 44 47 53 61 63 57 43 46 48 58 56 48 60 79 100 97 98 100 100 100 100 100 100 100 100 99 100 98 99 99 98 98 99 99 99 99 98 79 44 43 48
66 68 78 64 59 59 58 54 41 42 48 48 48 49 60 87 100 98 98 98 99 96 99 100 100 100 100 99 98 100 100 100 100 99 99 99 98 99 89 51 51 63 93
78 77 78 74 71 64 67 56 51 52 49 44 56 64 80 99 99 100 100 98 100 98 100 99 100 100 100 100 98 98 99 99 98 98 98 98 98 96 94 92 85 96 97
71 76 81 74 84 77 62 55 58 58 52 44 56 69 97 99 97 100 100 100 100 99 98 99 100 100 100 99 99 98 98 97 98 97 98 95 96 96 96 95 97 97 96
97 99 88 79 73 72 70 77 72 67 61 53 62 77 99 95 100 99 100 99 100 99 99 99 99 99 99 99 99 99 98 97 96 97 97 96 95 94 97 97 96 97 96

GFSMA_850_rhum_231.txt.gz
RH
81 81 79 74 65 62 62 71 78 82 80 78 74 75 71 69 67 67 68 67 59 59 56 50 52 47 47 39 29 10 9 8 6 5 5 5 5 6 16 28 35 22 14
76 74 76 78 77 77 82 85 88 90 87 83 79 76 81 85 74 71 66 70 69 65 60 52 56 58 48 47 36 18 11 9 7 6 5 4 4 5 6 19 25 18 13
76 74 73 82 85 86 89 94 97 98 96 90 81 80 74 80 82 80 72 71 66 66 67 63 58 59 54 50 44 33 17 12 9 8 7 6 5 5 7 16 19 9 9
86 81 80 81 93 98 95 93 98 100 100 97 90 86 84 77 82 79 81 78 73 78 71 73 71 67 64 52 50 46 39 21 14 15 13 10 9 7 8 12 9 8 7
98 98 96 90 95 97 97 99 98 97 98 100 100 99 99 89 81 85 84 75 74 76 76 74 74 75 72 65 63 58 46 41 23 23 24 27 24 26 17 11 16 18 22
54 52 73 91 94 95 97 99 99 100 100 95 100 97 98 98 96 92 93 89 78 76 72 73 76 76 75 72 69 70 62 57 42 45 43 44 51 64 39 39 53 36 39
25 27 24 30 43 43 38 34 47 96 99 99 100 98 94 97 100 88 98 89 97 85 83 77 76 77 78 76 73 75 75 70 76 89 82 75 86 95 86 78 75 71 68
35 40 36 32 40 49 35 35 52 55 54 75 80 84 97 87 92 92 82 80 95 89 87 83 80 79 78 77 72 72 74 73 74 96 95 95 90 99 98 88 97 91 68
28 33 37 41 45 47 66 71 71 76 77 65 58 78 93 87 94 85 82 89 91 94 95 90 88 84 80 78 75 73 73 78 78 90 95 98 98 99 99 99 99 99 100
35 43 49 49 53 64 73 81 86 82 78 77 68 64 77 89 100 94 82 92 90 86 82 76 80 82 80 77 74 74 73 76 83 82 97 96 97 98 97 98 99 98 98
27 36 48 58 64 74 84 82 80 80 80 78 83 86 84 86 76 97 99 96 91 100 95 89 79 72 79 78 77 74 76 79 80 88 95 96 94 95 94 97 91 96 98
56 56 52 45 44 52 56 61 59 54 57 72 81 84 76 95 100 97 98 98 100 90 87 82 98 95 86 86 85 79 79 79 82 89 90 93 92 90 92 91 94 91 93
43 38 36 39 41 42 39 33 29 27 28 32 45 51 75 63 82 90 100 98 99 97 98 88 72 72 76 98 99 97 92 89 91 96 95 93 92 84 98 89 95 95 96
36 36 34 33 33 33 32 32 31 32 31 31 34 44 56 74 82 70 90 100 100 98 98 94 74 94 89 72 70 79 94 76 94 100 100 100 98 90 99 94 93 94 87
29 28 28 28 31 35 34 34 34 35 36 33 33 52 60 78 92 87 98 100 100 100 97 97 98 94 95 92 90 92 90 87 84 99 100 100 100 97 100 98 96 89 95
27 29 31 35 36 38 40 39 35 32 34 39 40 50 70 71 81 80 68 87 83 99 100 98 95 92 91 90 90 99 95 96 91 96 100 100 100 99 100 100 100 95 96
33 34 34 35 35 34 36 39 40 39 36 33 46 57 57 72 80 89 90 78 78 94 99 98 99 100 97 94 96 92 91 100 95 86 99 100 100 100 100 100 100 98 99
43 44 45 46 45 43 43 42 36 38 41 51 56 68 61 63 64 75 72 63 75 79 96 94 98 97 99 98 98 89 95 94 97 90 100 99 100 100 100 100 99 100 100
45 51 56 58 59 59 59 54 50 44 42 57 67 72 66 69 67 63 61 57 71 77 98 95 89 94 99 100 98 89 97 85 95 88 95 92 99 100 100 100 100 100 100
57 58 58 57 57 58 58 60 62 59 57 77 82 64 45 52 59 74 72 72 90 77 87 98 93 96 98 100 98 99 94 100 95 100 89 93 99 100 100 100 100 100 100
50 55 54 56 59 60 72 87 88 79 72 68 88 77 63 70 65 56 62 68 84 79 100 99 100 98 99 100 100 100 97 98 99 99 100 99 99 100 100 100 100 100 100
55 62 67 66 66 68 72 87 93 92 89 88 74 72 62 58 54 51 51 62 81 96 100 100 98 98 98 98 99 92 98 100 100 97 100 100 100 100 100 100 100 100 100
62 66 73 82 86 78 78 98 97 89 84 79 80 86 77 66 63 57 48 60 87 96 98 99 99 98 98 100 100 98 99 99 100 100 100 100 100 100 100 100 100 100 100
60 79 76 78 86 82 92 97 98 99 100 98 94 89 79 76 65 71 56 66 84 94 93 92 93 99 98 99 100 98 99 100 100 100 100 99 99 100 99 100 100 100 100
83 99 99 99 100 98 82 97 100 100 100 100 100 100 100 94 91 100 90 95 90 91 90 97 96 99 100 100 90 99 99 100 99 99 99 97 97 98 98 98 99 99 99
100 99 98 100 100 85 72 72 74 96 95 92 94 100 100 100 100 100 100 100 93 95 99 100 95 100 99 86 94 99 99 99 98 98 98 96 96 96 96 97 98 98 98

GFSMA_850_rhum_234.txt.gz
RH
81 80 78 77 76 75 74 79 84 89 92 92 88 81 76 75 76 78 68 62 61 65 65 59 57 54 56 58 54 49 39 17 12 9 7 6 7 11 51 93 90 75 83
80 80 78 84 83 89 91 88 90 94 95 97 95 91 86 81 76 71 79 75 65 58 57 59 60 56 50 51 56 53 43 27 16 11 9 9 7 8 12 55 82 65 35
80 83 79 76 87 95 97 98 94 87 87 94 96 99 96 90 90 82 80 80 78 77 68 62 60 61 63 58 52 56 54 46 35 18 13 13 12 7 13 34 65 58 24
92 89 90 95 93 98 96 100 99 98 95 96 98 95 97 99 97 96 94 88 91 83 80 77 73 70 69 70 68 63 57 53 49 38 19 13 13 11 10 54 66 57 40
84 88 89 92 94 89 92 99 100 99 100 100 100 98 98 92 91 92 98 95 95 92 90 78 77 76 75 75 77 76 71 60 55 51 42 35 16 14 15 45 52 36 45
45 43 42 43 52 56 50 39 32 34 48 51 63 73 76 90 94 84 80 84 85 82 89 91 83 81 80 81 80 81 81 74 65 62 60 48 44 62 34 31 53 63 53
17 20 31 43 44 43 44 47 48 44 40 43 44 38 30 33 62 70 94 93 87 84 84 90 100 92 85 85 83 81 83 85 77 77 67 60 50 71 82 63 41 75 73
17 18 17 19 22 24 30 38 53 63 68 66 69 60 64 45 54 86 84 66 73 85 85 79 86 89 97 92 90 88 84 90 88 82 84 78 74 86 85 94 88 98 96
18 18 20 24 34 46 57 74 82 84 83 76 69 74 78 81 81 61 54 64 89 87 86 84 84 74 86 96 93 95 98 90 93 92 92 97 97 93 89 97 98 98 98
20 24 32 39 48 45 53 61 64 68 69 68 71 73 77 80 99 87 82 60 58 81 88 92 92 97 90 92 96 100 98 97 98 96 96 97 99 99 91 85 95 97 97
34 39 41 39 37 34 37 43 42 33 28 26 29 50 87 85 86 84 80 83 66 64 72 84 87 81 97 84 87 92 98 100 94 100 97 99 98 99 99 97 93 96 92
40 36 32 30 32 33 33 32 31 30 28 26 28 31 37 50 65 96 88 65 62 45 52 77 91 92 90 88 85 89 98 100 99 100 100 100 99 100 100 98 86 90 92
32 32 31 30 29 29 30 31 33 33 33 34 34 31 31 34 51 84 100 95 83 72 57 64 97 90 93 99 98 97 79 91 100 100 100 100 100 99 100 98 98 96 92
29 29 29 31 32 34 38 41 42 40 37 34 32 36 38 35 53 64 87 97 99 96 90 88 82 96 92 93 100 100 96 87 80 91 100 100 100 100 100 100 100 94 95
26 26 26 27 28 32 35 39 38 40 41 38 38 37 42 43 45 61 74 82 89 99 98 71 89 70 91 81 90 97 100 100 98 92 81 94 100 100 100 100 100 96 97
25 28 31 35 38 38 38 39 38 36 36 36 35 42 49 54 53 58 70 76 95 99 100 95 76 70 74 93 87 85 97 98 99 100 99 91 85 100 100 100 100 100 97
39 43 45 46 48 50 50 50 49 47 47 45 42 40 42 62 64 61 66 77 80 96 100 80 70 71 69 79 82 94 82 94 99 97 99 99 100 96 97 100 100 100 100
45 50 52 55 56 57 58 58 59 60 59 56 52 50 49 69 72 71 70 70 72 76 82 78 66 76 68 72 76 74 63 68 88 99 100 94 92 97 100 100 100 100 100
48 47 45 46 46 47 49 51 55 56 61 65 64 64 61 68 67 68 73 79 83 88 100 98 74 66 77 86 85 60 65 60 70 78 92 99 96 95 98 100 99 99 100
38 39 40 42 46 53 58 60 66 81 91 92 89 85 84 84 78 78 80 79 74 69 90 99 90 91 96 80 93 66 45 74 69 68 74 87 98 98 98 100 100 100 100
41 44 48 56 62 64 66 68 77 83 79 78 78 77 76 78 83 83 79 72 67 66 91 97 82 98 100 100 89 87 96 98 86 74 74 96 99 99 98 100 100 100 100
47 48 57 65 63 60 66 74 75 80 77 77 71 70 69 68 70 77 84 86 81 80 95 100 96 98 99 99 98 96 99 98 98 95 70 92 98 99 86 100 100 99 100
51 55 64 68 65 72 78 72 82 87 92 95 88 76 72 68 76 83 82 80 90 83 95 100 100 99 100 100 100 100 100 99 99 98 100 99 98 99 97 98 100 100 100
71 65 57 60 76 80 72 67 71 78 76 73 79 89 100 97 100 100 100 100 100 97 95 100 100 100 99 99 100 100 100 100 100 100 96 100 100 100 100 99 100 100 100
60 57 60 71 78 73 70 65 66 68 64 67 71 74 77 83 90 95 99 99 99 100 100 100 100 99 98 99 100 100 100 99 100 100 98 100 99 100 100 100 100 99 100
65 68 76 78 76 83 75 75 73 70 66 83 83 80 85 82 88 95 98 98 100 98 100 98 99 97 100 99 94 100 100 100 100 99 98 98 97 98 96 98 98 98 99

GFSMA_850_rhum_240.txt.gz
RH
91 88 87 95 98 99 99 100 100 100 99 96 83 81 79 80 93 98 98 97 82 78 75 78 68 63 65 64 57 52 48 46 44 40 31 19 15 13 18 36 79 82 89
80 76 78 78 80 81 93 94 94 92 92 93 98 96 93 87 85 84 100 99 97 82 86 82 83 81 74 69 66 61 57 54 50 45 38 31 18 14 13 24 62 90 84
76 73 74 71 76 73 74 80 82 87 97 88 89 98 93 87 97 96 94 96 98 99 95 86 94 93 92 85 81 78 73 68 65 60 51 41 35 26 13 16 35 73 88
78 75 76 73 83 82 82 79 73 84 86 80 76 77 77 80 78 82 84 95 99 99 99 93 77 83 94 95 93 88 87 80 74 71 69 62 47 37 28 14 16 44 81
80 83 80 68 55 46 36 30 52 55 60 59 57 52 52 55 49 43 51 64 71 77 84 98 87 86 92 96 100 100 98 94 88 79 77 74 67 53 38 26 15 33 86
67 52 29 13 17 51 63 67 69 74 75 75 70 57 61 59 57 60 60 65 69 79 83 92 99 100 98 86 92 96 98 100 100 95 86 80 79 71 58 43 25 30 90
16 14 12 16 32 64 70 74 74 71 69 77 70 54 47 43 61 67 71 65 64 69 70 67 72 68 78 94 72 82 96 98 100 100 100 94 89 84 72 60 47 33 94
13 7 7 17 23 68 66 67 66 60 50 57 54 41 37 34 37 56 49 66 60 69 64 59 65 66 73 70 79 72 47 56 84 96 97 100 97 94 91 76 67 49 97
7 8 12 15 20 41 56 53 39 46 43 43 54 46 42 35 43 43 42 46 61 53 62 64 62 66 69 71 79 82 89 82 68 66 79 90 99 95 93 98 83 73 85
11 14 14 15 18 39 46 47 42 44 52 40 42 42 52 56 50 49 43 44 44 44 50 56 59 61 64 75 74 74 68 91 99 95 89 93 98 100 99 97 97 83 90
13 12 17 17 20 44 44 33 46 49 47 51 46 47 51 51 48 46 45 45 45 44 48 53 63 68 72 75 76 82 91 91 96 84 95 95 98 98 100 98 98 89 95
38 18 13 15 23 26 23 38 38 57 60 61 58 58 56 55 53 50 50 51 52 50 51 54 56 62 66 76 78 89 96 86 94 98 100 100 98 97 99 100 98 100 85
51 30 13 16 28 18 26 29 32 52 69 68 70 62 61 62 60 59 58 54 51 50 51 50 52 60 74 84 91 90 76 70 66 81 87 97 100 100 88 98 99 100 100
33 10 14 15 20 28 31 34 38 60 61 69 73 74 69 66 68 64 61 58 59 56 52 51 51 56 75 77 76 83 84 86 83 57 69 84 92 100 100 92 97 96 99
12 14 14 20 32 37 38 36 54 68 78 78 86 87 83 76 74 71 68 66 68 76 65 56 56 54 69 77 70 77 86 87 71 61 63 72 82 97 100 100 82 98 98
12 13 17 30 37 35 32 38 72 80 86 82 83 87 88 82 83 79 78 76 80 86 87 72 61 63 66 84 75 78 78 88 91 89 72 58 69 74 90 99 89 94 100
13 16 26 31 28 28 34 38 80 84 82 89 92 92 91 90 87 86 90 97 98 89 90 75 73 69 76 89 87 79 77 84 84 88 63 45 49 49 82 80 96 88 92
14 17 20 27 31 32 36 41 55 58 80 93 93 94 93 88 92 92 98 99 100 93 97 85 79 81 91 94 94 93 90 94 97 97 87 41 39 62 79 90 97 92 91
12 17 28 31 32 38 37 39 44 43 68 78 94 95 95 95 94 93 100 96 97 97 97 97 98 92 91 93 89 92 92 96 92 99 99 64 37 63 66 65 72 92 97
18 30 31 32 36 38 43 45 41 42 48 73 88 93 92 97 98 100 98 100 100 98 98 98 97 98 98 96 97 97 93 95 98 98 100 95 54 56 57 58 66 73 100
30 31 34 37 38 49 53 41 41 47 53 59 59 62 66 62 56 58 77 90 99 99 98 97 98 98 99 98 98 100 100 100 93 98 100 97 97 70 65 68 96 82 97
31 36 38 40 51 70 41 36 41 52 55 53 57 56 58 56 61 56 65 79 100 100 98 99 98 99 96 99 98 98 98 99 100 98 98 97 86 74 71 69 81 88 88
41 45 46 49 50 69 39 47 50 50 52 56 57 60 62 66 60 67 93 85 81 81 90 100 100 98 99 99 100 98 98 100 96 99 100 95 90 78 80 78 86 95 94
47 49 44 42 44 48 52 54 51 50 54 58 61 63 74 72 85 80 87 97 92 83 87 92 100 99 100 99 99 100 100 100 95 92 97 99 96 94 97 87 74 87 90
41 45 45 46 46 45 47 37 28 37 55 69 69 77 73 66 68 77 92 94 90 77 86 88 93 98 99 98 99 99 98 95 94 100 99 100 98 99 99 97 70 81 94
47 45 33 19 21 28 30 23 26 30 43 65 82 78 70 72 84 96 100 100 100 89 92 87 84 88 98 98 98 99 99 99 100 100 98 99 99 100 99 99 98 91 99

GFSMA_850_rhum_246.txt.gz
RH
78 78 89 77 81 87 90 88 87 88 85 86 94 97 95 97 94 91 88 87 86 88 80 88 87 90 90 91 92 88 86 83 78 71 62 57 52 47 43 36 23 16 16
89 83 82 86 89 91 94 86 84 84 82 87 78 74 74 66 67 65 76 83 75 71 70 72 69 73 76 78 85 92 97 98 97 95 93 85 76 64 57 50 41 24 25
85 82 84 84 85 75 75 86 87 82 74 71 68 58 59 54 54 51 61 56 46 49 54 61 80 83 88 92 90 85 80 91 98 100 100 98 93 90 82 69 60 47 28
81 80 82 84 86 82 86 90 79 65 56 52 54 53 52 51 48 49 50 48 46 49 58 66 67 68 70 76 68 71 74 71 74 80 95 100 100 93 90 86 73 67 57
81 81 86 83 84 83 69 59 57 58 57 54 59 57 53 41 53 48 48 58 57 57 57 56 64 63 61 60 61 64 75 73 79 80 89 93 98 99 100 100 99 86 71
83 84 89 71 50 56 59 52 43 35 44 60 57 37 39 22 34 46 58 52 60 58 51 55 60 63 63 60 60 59 60 68 88 71 74 77 74 76 82 92 98 100 95
82 80 68 40 45 50 51 45 26 33 38 48 33 31 17 31 34 37 45 48 44 51 48 52 59 50 48 57 54 54 52 51 57 58 62 65 68 73 71 77 84 93 100
74 52 54 48 57 54 37 26 14 16 37 42 37 35 40 23 35 34 24 28 42 44 44 42 39 41 45 47 50 54 58 59 51 59 70 71 65 59 55 72 73 72 76
50 26 32 16 29 43 41 27 20 23 22 38 45 44 45 44 43 38 37 42 41 40 42 44 45 48 46 52 51 55 61 64 69 67 61 56 60 59 57 57 60 74 69
25 17 10 14 21 30 22 28 34 27 32 35 45 48 46 51 55 58 56 54 48 47 44 45 46 48 51 50 50 52 59 67 67 49 57 57 60 57 44 44 45 59 72
21 12 14 19 20 30 25 18 19 22 26 51 53 45 58 58 58 57 60 62 61 59 52 57 53 48 52 52 54 55 57 64 55 52 48 55 61 59 53 42 32 33 65
24 22 27 25 24 20 23 24 23 25 43 39 51 72 70 68 66 67 67 65 65 64 63 60 63 60 59 58 54 57 57 56 59 66 58 66 64 74 63 56 37 33 58
40 37 29 27 29 37 24 13 15 20 31 58 67 62 68 76 76 73 74 72 71 70 69 65 63 66 66 66 60 59 61 64 68 69 74 69 59 73 77 65 54 37 50
45 47 33 31 21 13 10 13 16 24 58 67 60 73 82 77 81 81 76 76 79 76 74 70 72 76 68 68 66 65 69 73 80 76 80 66 74 76 75 58 53 44 35
54 54 30 13 10 11 12 14 20 30 44 55 78 76 80 83 78 76 80 77 76 84 88 66 78 55 78 78 76 76 75 80 81 78 78 80 75 68 72 64 55 46 34
50 40 10 11 12 12 12 18 22 26 30 52 63 82 78 82 78 79 83 83 81 78 83 66 58 64 78 82 79 79 72 62 67 75 67 80 78 74 71 58 57 57 42
28 16 12 12 10 9 14 19 19 27 48 64 71 86 82 79 85 84 81 81 84 92 85 73 78 82 69 75 69 72 70 68 74 88 93 90 83 93 80 62 63 57 50
15 13 12 10 8 12 19 21 22 25 42 58 75 64 63 71 81 90 88 88 87 93 99 97 69 80 94 90 91 84 85 73 65 71 82 83 99 100 87 58 88 63 55
10 11 11 8 12 19 24 21 23 30 40 45 52 47 50 80 83 70 72 72 68 71 87 100 81 94 97 94 92 96 91 85 85 83 78 98 100 99 86 88 99 76 54
12 14 9 12 20 24 25 22 24 30 35 36 37 38 43 49 49 53 55 52 56 80 97 100 100 100 100 99 100 99 98 100 99 96 70 76 95 97 86 97 84 73 68
16 11 14 21 26 23 21 23 33 34 35 37 36 34 29 24 28 30 42 58 88 99 98 100 100 100 100 100 100 100 99 98 94 97 93 90 93 89 98 93 74 84 72
14 15 22 28 29 20 27 33 37 38 36 27 14 15 15 16 35 32 43 86 97 98 100 100 100 99 100 100 100 100 98 98 100 98 99 93 97 85 81 76 82 84 74
15 19 29 31 28 35 38 39 39 33 13 15 15 16 16 19 22 36 61 66 59 74 100 100 100 100 100 100 100 99 98 100 100 94 99 93 87 80 82 83 86 79 70
23 28 42 40 53 38 41 40 20 14 15 18 18 18 18 18 28 45 62 64 60 73 98 100 100 100 100 100 100 100 99 100 98 89 99 97 83 86 88 86 83 88 76
62 72 46 41 45 42 24 15 16 16 18 17 16 16 15 21 42 62 75 65 69 84 93 96 97 95 100 100 100 100 99 99 100 100 100 100 100 100 99 90 92 74 74
70 51 42 44 45 20 19 18 19 21 20 19 18 16 16 28 43 58 66 80 100 100 100 99 99 95 100 100 98 100 100 98 98 99 99 99 99 99 99 100 92 83 100